Wind_Speed
45 46 46 47 48 46 44 44 43 41 39 39 37 37 34 32 30 28 28 28 28 28 28 28 30 30 31 31 30 30 34 37 40 37 34 34 35 37 40 45 45 51 55 58 57
52 50 52 50 51 51 49 47 47 48 45 43 42 39 36 35 34 32 32 31 32 31 31 32 31 34 33 34 32 33 35 38 40 39 33 34 34 36 40 43 47 50 54 57 56
58 59 57 58 55 56 53 52 50 50 50 47 46 43 41 38 36 34 35 36 35 35 35 34 35 34 36 37 36 36 37 39 42 43 36 34 34 36 39 44 46 50 54 55 54
65 65 63 62 63 59 60 58 55 53 52 52 50 49 45 43 41 41 40 40 40 39 39 39 40 38 37 39 38 37 40 41 43 44 39 36 36 36 38 40 44 49 51 51 52
70 69 69 67 68 66 63 64 62 61 58 57 55 53 52 49 48 47 45 45 44 45 43 43 42 41 40 37 39 40 42 43 44 44 41 38 37 35 36 39 43 47 49 47 47
71 71 70 69 70 71 71 67 65 65 64 62 60 58 58 57 54 52 50 50 49 47 48 48 47 44 42 38 37 42 43 42 45 46 41 38 36 36 34 38 42 45 46 47 44
77 74 75 73 75 73 73 72 71 69 64 64 64 63 63 62 60 58 56 54 52 50 48 51 51 49 44 42 40 39 38 44 47 46 43 39 38 36 34 37 40 44 45 48 43
86 84 79 78 78 79 77 77 76 74 71 69 66 66 66 65 61 62 60 59 57 52 52 51 53 51 47 45 43 39 35 35 44 44 43 42 39 39 36 37 40 43 43 46 39
95 93 90 87 83 82 82 79 78 79 78 75 72 69 69 68 68 63 63 61 60 56 55 53 53 54 52 48 44 38 36 37 38 38 40 42 41 41 38 37 40 43 42 47 34
102 102 101 97 94 92 87 85 84 80 80 80 78 74 71 70 74 68 64 64 61 58 57 55 55 55 53 48 42 35 35 37 41 38 38 42 43 46 43 40 41 43 43 47 35
104 107 107 106 105 102 97 93 90 87 84 83 78 79 76 72 73 74 70 67 64 61 62 58 57 57 52 48 43 37 37 39 41 41 39 41 45 46 46 43 44 45 44 46 35
87 100 108 110 111 110 108 104 99 94 90 87 86 81 77 74 69 70 75 72 67 62 60 55 54 56 55 47 44 42 43 44 45 44 43 43 46 46 49 48 46 45 46 42 36
65 81 96 110 113 116 114 113 108 104 98 95 90 86 85 78 73 71 71 70 65 63 60 57 57 58 54 49 47 43 43 45 48 46 45 43 48 49 53 52 49 45 47 44 36
60 68 80 93 109 118 119 117 115 112 108 102 97 93 90 87 79 80 76 77 70 66 66 61 63 59 56 52 51 48 50 50 49 50 50 49 51 53 56 56 51 48 48 45 42
58 59 68 82 99 106 119 120 118 115 115 108 104 98 95 94 88 85 84 82 74 72 71 67 67 63 59 61 59 58 56 55 54 54 54 55 53 59 55 53 55 50 48 46 45
59 56 55 66 83 98 105 118 119 120 116 110 107 105 102 99 94 90 93 87 84 82 76 72 69 69 67 66 64 63 62 59 59 59 57 59 55 58 59 53 52 48 47 49 46
51 51 49 56 63 82 94 102 115 118 113 113 109 108 106 104 102 97 95 93 89 88 82 81 78 76 73 71 69 69 67 64 62 62 60 57 53 55 56 51 49 49 50 50 38
48 44 44 47 56 64 81 90 96 104 110 111 113 111 109 108 104 101 99 96 93 91 89 87 84 83 80 76 77 73 68 66 63 59 58 57 55 59 55 51 48 53 53 47 41
49 44 43 42 49 55 67 75 78 88 98 107 111 111 112 109 107 105 101 99 96 93 91 91 87 87 84 81 78 74 69 66 63 62 62 61 60 57 56 55 51 54 51 49 44
51 43 39 40 43 47 52 61 71 77 86 95 104 108 109 109 109 105 103 99 96 92 91 88 87 86 85 79 77 72 69 69 68 67 64 62 60 59 57 52 52 52 52 49 46
50 42 36 38 39 41 45 52 59 70 76 83 88 93 104 105 107 107 104 100 99 95 93 90 88 89 86 79 78 75 73 72 73 69 63 61 60 57 53 49 47 48 49 48 49
49 41 35 36 36 38 42 46 53 61 65 72 76 78 84 87 96 103 100 98 98 96 94 92 90 91 85 85 80 78 77 73 67 63 61 57 56 51 49 47 46 46 49 52 50
48 40 32 33 35 34 36 39 44 52 57 61 67 68 68 71 77 86 89 88 88 91 92 89 86 87 86 83 79 77 74 72 69 65 59 55 54 48 45 47 46 48 50 47 48
47 38 30 31 31 31 32 34 39 43 48 52 59 67 65 62 63 65 70 75 79 80 81 83 81 81 78 80 79 76 73 68 65 60 55 51 53 44 44 48 48 47 45 43 41
47 36 29 27 27 30 32 35 36 40 43 47 52 58 65 65 61 60 62 64 66 69 71 72 70 70 72 72 71 67 65 62 58 55 51 51 47 45 45 48 47 43 43 40 38
44 32 27 25 25 27 30 34 37 39 40 41 49 53 57 64 69 65 63 61 59 60 61 60 60 60 60 60 61 59 58 54 52 51 50 51 45 45 47 46 45 43 42 42 38
44 32 27 28 27 28 32 32 33 37 38 39 44 43 46 54 60 65 71 67 62 60 57 54 54 55 55 55 54 52 50 51 51 50 51 51 46 47 46 44 43 45 45 43 40
Wind_Direction
234 238 236 237 237 238 239 240 244 247 247 252 254 258 260 262 266 273 280 284 290 297 303 308 313 316 317 318 321 328 332 340 344 345 345 344 347 351 358 359 1 1 2 1 358
241 241 242 242 241 240 239 242 244 248 250 252 255 255 258 262 267 272 278 283 287 292 298 304 310 313 313 312 317 322 327 333 339 340 340 340 343 348 356 358 359 360 1 358 355
244 244 243 243 245 246 245 244 244 247 249 251 253 255 257 261 265 271 275 279 285 288 292 298 302 305 308 308 310 316 323 326 331 337 337 339 341 345 352 353 356 357 358 356 353
243 245 245 246 245 245 245 246 248 248 249 250 251 253 256 260 264 268 270 275 280 283 288 293 296 299 302 305 309 313 317 323 325 331 334 336 339 344 350 351 353 357 0 354 347
244 243 243 243 245 245 246 248 248 249 251 252 253 253 257 261 262 265 269 273 277 282 286 289 292 293 294 299 304 308 311 316 319 325 330 332 335 343 350 350 350 357 2 354 346
247 245 244 241 243 244 245 247 249 250 251 252 252 255 256 258 260 263 267 271 274 278 284 287 289 290 292 296 300 304 308 312 315 322 325 329 331 336 346 346 349 355 358 353 346
247 246 244 242 240 242 242 245 247 248 250 251 252 254 256 258 260 262 264 267 270 274 279 284 287 288 288 291 298 301 305 308 311 316 320 324 327 330 341 342 344 352 357 353 345
251 249 247 245 241 239 240 242 245 247 249 249 251 255 256 257 259 261 264 266 267 271 274 279 283 285 286 289 294 296 298 299 305 310 316 321 325 325 333 338 342 349 354 354 349
253 252 249 247 246 243 239 239 242 244 246 248 251 254 255 258 259 258 261 264 266 269 273 273 276 280 284 287 292 294 294 293 297 304 310 315 319 318 326 330 337 345 349 351 352
254 253 251 250 248 246 244 241 239 240 243 245 248 251 253 256 258 257 259 262 264 266 266 270 274 278 280 284 287 287 287 288 296 299 305 309 313 315 319 324 333 337 343 345 354
255 251 251 251 250 250 247 244 242 239 240 242 245 247 248 252 257 259 256 259 263 264 266 268 270 271 274 280 284 282 278 285 292 297 301 305 308 312 315 321 327 331 335 341 350
252 251 247 248 249 249 249 247 245 243 242 241 241 242 246 247 249 255 258 257 257 260 263 264 266 269 274 275 278 281 284 284 288 294 298 304 305 311 312 317 323 326 329 338 345
256 252 249 244 245 244 246 246 247 246 243 244 241 241 241 242 245 249 255 256 256 257 258 260 263 268 270 272 275 277 276 282 287 292 296 302 303 308 309 312 317 321 324 331 340
276 257 248 247 243 241 240 242 243 244 245 244 245 244 244 244 243 247 250 253 255 257 258 259 263 266 270 272 273 275 277 281 284 289 294 296 299 301 306 309 312 316 319 324 328
292 276 255 247 243 240 239 238 239 241 242 242 245 245 246 247 245 246 247 252 253 255 257 259 262 265 267 267 271 273 277 279 282 285 288 292 296 298 302 307 309 312 312 316 322
296 285 266 250 243 240 238 237 236 238 239 241 242 244 244 246 246 247 250 251 253 254 256 258 261 262 264 266 270 272 275 278 280 285 290 289 295 295 298 302 303 301 301 311 320
302 288 272 255 250 242 240 239 237 236 238 237 238 241 243 244 245 245 248 251 252 255 256 257 258 261 264 266 268 270 274 279 283 284 286 290 290 288 295 298 297 291 296 312 310
307 289 276 260 253 248 241 239 241 238 237 237 237 237 240 242 243 245 247 249 251 254 255 257 259 261 263 264 267 271 274 277 278 279 282 283 286 289 292 293 292 292 296 302 301
311 295 278 265 259 252 243 239 238 237 237 238 237 238 238 241 243 244 246 247 249 251 254 256 259 260 261 265 268 270 272 272 274 277 281 283 285 286 287 290 291 292 294 298 296
315 301 282 268 260 253 246 240 237 236 237 237 238 238 239 240 242 243 245 248 249 250 252 255 257 260 261 263 266 267 268 271 275 279 282 281 282 282 286 288 289 293 294 290 280
320 304 285 269 258 253 246 239 235 233 235 236 238 241 239 240 242 243 244 246 248 249 251 253 256 258 261 262 263 266 270 272 276 278 276 277 280 283 284 286 287 283 280 280 276
323 309 287 267 256 252 246 239 235 234 234 236 239 241 241 242 242 242 244 247 248 248 250 252 254 258 260 262 265 267 270 273 273 273 273 276 274 276 282 278 279 274 271 273 276
324 312 286 263 256 252 243 240 236 235 234 234 236 238 239 241 243 243 242 244 248 248 249 251 254 257 259 262 264 265 266 268 270 271 274 273 270 274 274 270 270 265 267 274 278
324 314 289 261 251 247 240 236 234 231 229 233 234 235 234 234 237 239 242 242 244 246 248 250 252 255 257 257 260 265 265 266 268 270 267 265 267 266 267 265 264 264 269 271 275
324 313 286 260 249 243 238 231 230 229 227 228 233 234 235 235 235 234 237 238 239 242 245 248 250 252 254 256 258 259 259 260 260 259 258 258 261 259 261 261 265 264 268 272 277
322 309 280 254 243 240 234 229 229 226 223 224 231 234 237 237 235 233 235 234 236 238 239 241 243 245 246 248 251 251 252 251 250 251 251 251 252 256 256 259 263 264 269 273 275
319 303 272 257 250 240 234 228 227 222 218 222 231 233 234 235 236 237 237 235 234 234 233 235 237 239 239 242 243 244 246 247 248 249 249 249 252 254 255 260 260 264 269 271 274
Height
11002 11005 11007 11009 11011 11014 11016 11018 11020 11021 11023 11024 11025 11027 11028 11029 11029 11029 11030 11031 11031 11032 11031 11031 11028 11028 11027 11026 11025 11023 11022 11019 11017 11014 11011 11007 11002 10998 10994 10988 10981 10974 10966 10958 10949
10994 10996 11000 11002 11004 11007 11009 11011 11013 11015 11017 11020 11020 11022 11023 11023 11024 11024 11025 11026 11028 11029 11028 11028 11028 11024 11024 11023 11023 11022 11020 11017 11015 11013 11011 11006 11002 10998 10993 10987 10980 10974 10967 10957 10948
10985 10988 10991 10993 10996 10999 11001 11003 11005 11007 11010 11013 11015 11015 11017 11019 11019 11021 11021 11020 11023 11024 11026 11025 11025 11026 11021 11020 11020 11018 11017 11015 11012 11010 11008 11005 11001 10997 10992 10985 10979 10974 10967 10957 10948
10976 10978 10980 10983 10986 10989 10992 10994 10996 10998 11001 11004 11007 11009 11010 11012 11014 11015 11017 11017 11017 11018 11020 11021 11022 11023 11021 11017 11016 11015 11013 11012 11009 11007 11005 11002 10999 10996 10991 10985 10980 10975 10968 10958 10949
10963 10966 10969 10972 10975 10979 10982 10984 10986 10989 10992 10995 10998 11000 11003 11005 11006 11008 11011 11012 11013 11011 11014 11016 11016 11017 11017 11017 11012 11012 11009 11007 11004 11004 11002 10999 10996 10994 10991 10985 10979 10976 10969 10959 10950
10950 10953 10955 10959 10962 10965 10970 10974 10976 10978 10981 10983 10986 10989 10992 10994 10999 11001 11003 11004 11005 11007 11006 11007 11008 11010 11011 11011 11011 11006 11004 11003 10999 10999 10998 10997 10994 10991 10990 10984 10980 10976 10968 10958 10950
10936 10940 10942 10944 10948 10952 10956 10960 10963 10967 10971 10972 10974 10977 10981 10983 10988 10991 10994 10995 10996 11000 11002 10998 10999 11002 11005 11005 11005 11004 11000 10994 10993 10992 10992 10992 10990 10988 10987 10983 10979 10975 10968 10958 10949
10919 10924 10927 10930 10932 10935 10941 10946 10949 10953 10957 10961 10963 10966 10969 10972 10975 10980 10983 10986 10988 10992 10994 10995 10990 10994 10997 10998 10999 10998 10998 10994 10990 10987 10986 10985 10985 10983 10983 10980 10977 10972 10968 10959 10950
10898 10902 10907 10913 10916 10919 10924 10928 10933 10938 10942 10946 10950 10953 10956 10959 10962 10969 10971 10976 10979 10983 10985 10987 10986 10986 10988 10990 10992 10992 10990 10989 10988 10985 10982 10981 10980 10978 10978 10977 10973 10969 10966 10960 10951
10876 10878 10883 10889 10894 10901 10907 10913 10916 10920 10925 10930 10935 10941 10944 10946 10945 10956 10960 10964 10968 10972 10974 10977 10977 10978 10979 10982 10983 10985 10983 10981 10982 10983 10979 10975 10974 10971 10971 10970 10968 10966 10963 10957 10951
10849 10853 10857 10864 10869 10875 10885 10893 10898 10902 10909 10913 10921 10925 10930 10934 10937 10938 10948 10953 10956 10960 10962 10967 10969 10970 10972 10974 10974 10977 10976 10974 10975 10977 10975 10971 10968 10967 10963 10963 10962 10960 10959 10955 10952
10820 10821 10825 10834 10839 10848 10856 10867 10875 10885 10890 10896 10904 10909 10914 10921 10925 10925 10930 10940 10945 10948 10951 10955 10958 10959 10964 10966 10967 10967 10966 10965 10966 10970 10969 10967 10962 10960 10956 10956 10956 10956 10954 10956 10952
10797 10794 10795 10800 10806 10816 10826 10838 10848 10859 10871 10877 10886 10893 10896 10906 10912 10914 10914 10921 10931 10936 10940 10944 10943 10951 10953 10956 10957 10959 10959 10958 10958 10959 10960 10961 10955 10953 10948 10949 10950 10950 10948 10950 10949
10769 10766 10766 10768 10773 10784 10796 10807 10818 10831 10843 10857 10865 10875 10882 10888 10903 10895 10904 10904 10916 10922 10926 10935 10933 10938 10943 10946 10946 10950 10949 10950 10952 10951 10952 10955 10950 10947 10942 10940 10942 10942 10941 10942 10941
10742 10735 10735 10736 10742 10751 10764 10775 10788 10801 10814 10832 10843 10859 10864 10868 10882 10886 10885 10888 10903 10905 10912 10920 10922 10928 10932 10930 10935 10936 10940 10940 10942 10942 10943 10943 10945 10935 10938 10930 10926 10930 10930 10932 10932
10716 10709 10708 10709 10715 10724 10732 10745 10758 10768 10791 10814 10823 10829 10841 10846 10859 10870 10867 10878 10883 10889 10899 10904 10910 10912 10916 10919 10924 10926 10927 10930 10931 10932 10933 10931 10936 10925 10926 10927 10920 10916 10916 10920 10921
10698 10690 10687 10689 10695 10700 10708 10720 10731 10748 10772 10782 10798 10806 10815 10824 10831 10845 10851 10860 10870 10871 10882 10886 10892 10895 10904 10907 10909 10912 10915 10918 10922 10922 10921 10921 10923 10914 10918 10920 10916 10907 10904 10910 10911
10684 10675 10672 10674 10675 10678 10686 10697 10713 10731 10743 10757 10769 10783 10790 10797 10813 10824 10832 10844 10853 10858 10862 10868 10875 10878 10885 10891 10893 10900 10905 10906 10907 10909 10909 10910 10913 10907 10907 10909 10906 10896 10899 10901 10899
10669 10662 10657 10658 10657 10661 10668 10681 10695 10703 10717 10730 10743 10757 10769 10779 10790 10803 10814 10822 10833 10842 10848 10850 10858 10861 10867 10873 10880 10884 10891 10891 10894 10896 10897 10898 10899 10898 10896 10895 10896 10889 10887 10889 10887
10655 10647 10643 10642 10643 10647 10654 10663 10672 10685 10694 10705 10716 10737 10750 10760 10769 10780 10791 10804 10816 10825 10827 10835 10838 10843 10849 10861 10865 10870 10873 10876 10880 10883 10885 10884 10884 10883 10886 10884 10882 10881 10877 10876 10874
10644 10636 10630 10629 10631 10635 10640 10646 10656 10664 10676 10686 10699 10714 10726 10740 10750 10761 10773 10786 10794 10805 10810 10816 10819 10820 10833 10847 10848 10854 10858 10862 10864 10871 10868 10871 10872 10872 10872 10873 10873 10870 10865 10862 10861
10633 10624 10619 10618 10621 10624 10628 10635 10643 10651 10663 10674 10684 10697 10706 10720 10731 10742 10753 10764 10775 10783 10792 10797 10801 10803 10816 10823 10833 10838 10842 10846 10848 10852 10854 10858 10856 10861 10862 10857 10860 10859 10855 10851 10849
10623 10616 10610 10609 10611 10614 10618 10624 10633 10640 10651 10662 10672 10681 10692 10703 10713 10722 10734 10746 10753 10761 10771 10778 10788 10789 10797 10808 10815 10820 10823 10829 10834 10836 10843 10844 10842 10849 10849 10843 10847 10847 10845 10845 10841
10614 10606 10602 10601 10603 10606 10610 10616 10621 10631 10641 10651 10659 10667 10678 10687 10695 10705 10716 10727 10736 10743 10752 10759 10769 10775 10782 10784 10794 10804 10808 10813 10819 10823 10826 10831 10828 10836 10835 10831 10833 10835 10834 10835 10833
10606 10598 10595 10595 10596 10599 10602 10608 10615 10623 10633 10642 10647 10656 10663 10673 10683 10692 10701 10710 10719 10728 10736 10743 10751 10759 10763 10770 10780 10787 10790 10797 10802 10808 10812 10815 10818 10821 10821 10820 10820 10822 10822 10824 10826
10600 10592 10588 10588 10590 10592 10595 10601 10608 10615 10624 10632 10635 10642 10651 10661 10669 10675 10686 10695 10704 10714 10720 10729 10736 10742 10748 10752 10763 10770 10775 10782 10787 10793 10797 10799 10808 10810 10809 10810 10808 10810 10811 10812 10816
10591 10585 10582 10583 10584 10586 10589 10594 10600 10608 10616 10622 10626 10634 10639 10644 10652 10662 10670 10680 10690 10699 10707 10717 10723 10730 10735 10739 10747 10756 10765 10770 10775 10780 10783 10786 10795 10797 10798 10799 10799 10798 10799 10800 10804